Location: *
(46.4833°N, 7.6667°E)
Time: 20:45:47
(UTC+00:00)

USA 238 DEB - Pass Details

Date: 27 February 2020
Orbit: 1018 x 1194 km, 63.4° (Epoch: 31 March)

Event Time Altitude Azimuth Distance (km) Brightness Sun altitude
Rises 19:58:23 0° 319° (NW) 3,949 7.6 -29.1°
Reaches altitude 10° 20:01:02 10° 318° (NW) 3,012 6.8 -29.5°
Maximum altitude 20:08:11 71° 236° (WSW) 1,222 3.9 -30.7°
Enters shadow 20:09:21 61° 186° (S) 1,305 3.9 -30.9°
